Date String (YYYY-MM-DD hh:mm:ss) UTC,Instrument flags,Ambient pressure (hPa),Sample flow (lpm),Bypass flow (lpm),Sample temperature (°C),Ambient temperature (°C),ASC tube jacket temperature (°C),LED temperature (°C),Box temperature (°C),Sample RH (%),Span deviation,Mass concentration (μg/m³),Mass concentration (μg/m³),Mass concentration (μg/m³)
DateTimeUTC,F1_M11,P_M11,Q1_M11,Q2_M11,T1_M11,T2_M11,T3_M11,T4_M11,T5_M11,U1_M11,ZSPAN_M11,X0_M11,X2_M11,X1_M11
2021-09-06 18:00:00,,0829.1,5.01,0.00,28.9,27.0,00.0,38.0,30.7,13.3,0001.9,0028.25,0017.71,0016.69
2021-09-06 18:01:00,,0829.1,5.00,0.00,29.0,27.4,00.0,38.0,30.8,13.3,0002.5,0028.52,0017.75,0016.72
2021-09-06 18:02:00,,0829.1,5.01,0.00,29.1,27.7,00.0,38.0,30.9,13.0,0003.4,0028.56,0017.77,0016.71
2021-09-06 18:03:00,,0829.1,5.00,0.00,29.1,28.0,00.0,38.1,31.0,12.8,0003.5,0028.25,0017.75,0016.67
2021-09-06 18:04:00,,0829.1,5.01,0.00,29.2,27.9,00.0,38.1,31.0,12.9,0003.9,0026.79,0017.72,0016.66
2021-09-06 18:05:00,,0829.0,5.00,0.00,29.1,26.4,00.0,38.1,30.6,13.3,0003.9,0025.95,0017.66,0016.64
2021-09-06 18:06:00,,0829.0,5.00,0.00,29.0,25.8,00.0,38.0,30.4,13.6,0004.1,0026.07,0017.60,0016.60
2021-09-06 18:07:00,,0829.0,5.00,0.00,28.9,26.3,00.0,38.0,30.5,13.2,0004.5,0025.65,0017.59,0016.56
2021-09-06 18:08:00,,0829.0,5.00,0.00,28.9,26.7,00.0,38.0,30.6,13.1,0004.3,0025.98,0017.58,0016.54
2021-09-06 18:09:00,,0829.0,5.00,0.00,29.0,27.1,00.0,38.0,30.7,12.8,0004.0,0026.58,0017.44,0016.45
2021-09-06 18:10:00,,0828.9,5.01,0.00,29.0,27.5,00.0,38.0,30.8,12.9,0003.6,0026.20,0017.45,0016.46
2021-09-06 18:11:00,,0828.9,5.00,0.00,29.1,27.8,00.0,38.0,30.9,13.2,0003.5,0025.78,0017.50,0016.49
2021-09-06 18:12:00,,0828.9,5.00,0.00,29.1,28.1,00.0,38.0,31.0,13.3,0003.3,0025.51,0017.51,0016.52
2021-09-06 18:13:00,,0828.9,5.00,0.00,29.1,27.3,00.0,38.1,30.8,13.1,0002.6,0025.22,0017.49,0016.54
2021-09-06 18:14:00,,0828.8,5.00,0.00,29.0,26.0,00.0,38.0,30.4,13.0,0001.7,0025.53,0017.51,0016.60
2021-09-06 18:15:00,,0829.3,5.00,0.00,28.9,26.1,00.0,38.0,30.4,13.1,0001.6,0027.15,0017.61,0016.63
2021-09-06 18:16:00,,0829.2,5.01,0.00,28.9,26.6,00.0,38.0,30.6,12.7,0001.8,0028.48,0017.68,0016.69
2021-09-06 18:17:00,,0829.3,4.99,0.00,28.9,27.0,00.0,38.0,30.7,12.6,0001.9,0028.60,0017.72,0016.75
2021-09-06 18:18:00,,0829.3,5.00,0.00,29.0,27.4,00.0,38.0,30.8,12.6,0000.9,0029.30,0017.77,0016.77
2021-09-06 18:19:00,,0829.1,4.99,0.00,29.0,27.7,00.0,38.0,30.9,12.8,0000.3,0029.54,0017.79,0016.82
2021-09-06 18:20:00,,0829.0,5.01,0.00,29.1,28.0,00.0,38.0,31.0,13.4,0000.2,0029.52,0017.97,0016.91
2021-09-06 18:21:00,,0829.0,5.00,0.00,29.1,27.2,00.0,38.0,30.8,13.3,0000.0,0029.65,0017.99,0016.93
2021-09-06 18:22:00,,0828.8,5.00,0.00,29.0,25.8,00.0,38.0,30.4,13.3,0000.2,0029.78,0018.00,0016.97
2021-09-06 18:23:00,,0828.8,4.99,0.00,28.9,26.0,00.0,38.0,30.4,13.1,-000.3,0029.70,0018.08,0017.01
2021-09-06 18:24:00,,0828.7,5.01,0.00,28.9,26.4,00.0,38.0,30.5,13.0,-000.6,0029.88,0018.18,0017.06
2021-09-06 18:25:00,,0829.1,5.00,0.00,28.9,26.8,00.0,38.0,30.6,13.4,-000.0,0029.87,0018.26,0017.11
2021-09-06 18:26:00,,0829.0,5.01,0.00,28.9,27.3,00.0,38.0,30.8,13.6,0000.0,0028.87,0018.28,0017.15
2021-09-06 18:27:00,,0829.1,5.00,0.00,29.0,27.6,00.0,38.0,30.8,13.9,-000.6,0027.62,0018.28,0017.17
2021-09-06 18:28:00,,0828.9,5.00,0.00,29.1,27.9,00.0,38.0,30.9,13.6,-001.1,0027.69,0018.35,0017.20
2021-09-06 18:29:00,,0829.1,5.00,0.00,29.1,28.2,00.0,38.0,31.0,12.9,-000.8,0027.33,0018.39,0017.25
2021-09-06 18:30:00,,0828.9,4.99,0.00,29.2,27.4,00.0,38.0,30.9,13.0,0000.4,0027.00,0018.45,0017.29
2021-09-06 18:31:00,,0829.1,5.01,0.00,29.0,26.1,00.0,38.0,30.5,13.3,0000.8,0026.85,0018.42,0017.31
2021-09-06 18:32:00,,0828.6,5.01,0.00,29.0,26.1,00.0,38.0,30.5,13.4,0001.1,0026.69,0018.41,0017.33
2021-09-06 18:33:00,,0829.2,5.00,0.00,29.0,26.6,00.0,38.0,30.6,13.3,0001.6,0026.56,0018.43,0017.35
2021-09-06 18:34:00,,0828.9,5.00,0.00,29.0,27.0,00.0,38.0,30.7,13.2,0001.6,0026.37,0018.40,0017.35
2021-09-06 18:35:00,,0828.6,4.98,0.00,29.0,27.3,00.0,38.0,30.8,13.5,0001.5,0026.58,0018.34,0017.33
2021-09-06 18:36:00,,0828.8,5.01,0.00,29.1,27.7,00.0,38.0,30.9,13.7,0001.0,0026.39,0018.31,0017.31
2021-09-06 18:37:00,,0828.9,5.01,0.00,29.1,28.0,00.0,38.0,31.0,13.0,0001.1,0026.18,0018.30,0017.29
2021-09-06 18:38:00,,0828.6,5.00,0.00,29.2,28.3,00.0,38.1,31.1,12.9,0001.4,0026.29,0018.34,0017.31
2021-09-06 18:39:00,,0829.1,4.99,0.00,29.2,27.6,00.0,38.1,30.9,13.1,0001.3,0026.28,0018.31,0017.31
2021-09-06 18:40:00,,0828.7,5.00,0.00,29.1,26.1,00.0,38.0,30.5,12.6,0001.6,0027.03,0018.34,0017.32
2021-09-06 18:41:00,,0828.6,5.00,0.00,29.0,26.1,00.0,38.0,30.5,12.9,0001.4,0026.72,0018.27,0017.30
2021-09-06 18:42:00,,0828.6,5.00,0.00,29.0,26.5,00.0,38.0,30.6,12.9,0001.5,0025.86,0018.23,0017.30
2021-09-06 18:43:00,,0828.8,5.00,0.00,29.0,26.9,00.0,38.0,30.7,13.1,0001.6,0025.94,0018.24,0017.28
2021-09-06 18:44:00,,0829.0,5.00,0.00,29.0,27.3,00.0,38.0,30.8,12.8,0001.4,0025.95,0018.24,0017.25
2021-09-06 18:45:00,,0828.7,5.00,0.00,29.1,27.7,00.0,38.0,30.9,12.8,0001.5,0025.89,0018.21,0017.21
2021-09-06 18:46:00,,0828.5,4.99,0.00,29.1,28.0,00.0,38.1,31.0,13.1,0001.6,0025.55,0018.21,0017.20
2021-09-06 18:47:00,,0828.5,5.00,0.00,29.2,27.5,00.0,38.1,30.9,12.8,0001.5,0025.61,0018.18,0017.20
2021-09-06 18:48:00,,0828.5,5.00,0.00,29.0,26.0,00.0,38.0,30.4,12.8,0001.0,0026.18,0018.18,0017.21
2021-09-06 18:49:00,,0828.5,5.00,0.00,28.9,26.0,00.0,38.0,30.4,12.5,0000.5,0026.95,0018.21,0017.20
2021-09-06 18:50:00,,0828.5,5.01,0.00,28.9,26.4,00.0,38.0,30.5,12.7,0000.2,0026.59,0018.18,0017.18
2021-09-06 18:51:00,,0828.5,4.99,0.00,28.9,26.8,00.0,38.0,30.6,13.1,-000.0,0025.74,0018.10,0017.11
2021-09-06 18:52:00,,0828.5,5.00,0.00,29.0,27.3,00.0,38.0,30.8,13.0,-000.2,0025.98,0018.09,0017.08
2021-09-06 18:53:00,,0828.7,5.01,0.00,29.0,27.6,00.0,38.0,30.9,13.2,-000.1,0025.99,0018.07,0017.05
2021-09-06 18:54:00,,0828.8,5.00,0.00,29.1,27.9,00.0,38.0,31.0,12.6,-000.1,0025.91,0017.99,0016.99
2021-09-06 18:55:00,,0828.9,4.98,0.00,29.2,28.0,00.0,38.0,31.0,12.6,-000.1,0025.86,0017.95,0016.95
2021-09-06 18:56:00,,0828.7,5.00,0.00,29.1,26.7,00.0,38.0,30.7,13.0,-000.2,0025.88,0017.94,0016.96
2021-09-06 18:57:00,,0828.7,5.01,0.00,29.0,25.8,00.0,38.0,30.4,12.4,0000.1,0026.68,0017.92,0016.92
2021-09-06 18:58:00,,0828.5,4.98,0.00,28.9,26.2,00.0,38.0,30.5,12.6,0000.5,0026.74,0017.89,0016.87
2021-09-06 18:59:00,,0828.8,5.01,0.00,28.9,26.6,00.0,38.0,30.6,12.7,0000.9,0027.20,0017.83,0016.82
